Change the Weather History Date:

Tuesday, July 30, 2013

  Actual Average Record
Temperature  
Mean Temperature 82 °F -  
Max Temperature 86 °F 88 °F 92 °F (1968)
Min Temperature 77 °F 68 °F 63 °F (1950)
Cooling Degree Days 16    
Growing Degree Days 32 (Base 50)    
Moisture  
Dew Point 74 °F    
Average Humidity 84    
Maximum Humidity 90    
Minimum Humidity 67    
Precipitation  
Precipitation 0.22 in - - ()
Sea Level Pressure  
Sea Level Pressure 29.97 in    
Wind  
Wind Speed 8 mph (SE)    
Max Wind Speed 26 mph    
Max Gust Speed 36 mph    
Visibility 8 miles    
Events Rain    
Averages and records for this station are not official NWS values.
T = Trace of Precipitation, MM = Missing Value Source: NWS Daily Summary

Daily Weather History Graph

Daily Weather History Graph

Search for Another Location

Airport or City:

Trip Planner

Search our weather history database for the weather conditions in past years. The results will help you decide how hot, cold, wet, or windy it might be!

Date:

Astronomy

Jul. 30, 2013 Rise Set
Actual Time 6:10 AM HST 7:19 PM HST
Civil Twilight 5:46 AM HST 7:43 PM HST
Nautical Twilight 5:18 AM HST 8:12 PM HST
Astronomical Twilight 4:49 AM HST 8:41 PM HST
Moon 12:31 AM HST (7/30) 1:52 PM HST (7/30)
Length of Visible Light 13h 56m
Length of Day
13h 09m
Last Quarter, 39% of the Moon is Illuminated
Jul 30
Last Quarter
Aug 6
New
Aug 14
First Quarter
Aug 20
Full
Aug 27
Last Quarter

Hourly Weather History & Observations

Time (HST) Temp. Heat Index Dew Point Humidity Pressure Visibility Wind Dir Wind Speed Gust Speed Precip Events Conditions
12:56 AM 80.1 °F 84.2 °F 73.0 °F 79% 29.88 in 10.0 mi Calm Calm - N/A   Overcast
1:56 AM 80.1 °F 84.2 °F 73.0 °F 79% 29.87 in 10.0 mi Calm Calm - 0.00 in Rain Light Rain
2:49 AM 78.8 °F - 73.4 °F 83% 29.86 in 10.0 mi North 4.6 mph - 0.00 in   Overcast
2:56 AM 78.1 °F - 73.9 °F 87% 29.87 in 10.0 mi North 5.8 mph - 0.00 in   Overcast
3:07 AM 78.8 °F - 75.2 °F 89% 29.86 in 10.0 mi North 4.6 mph - N/A   Overcast
3:17 AM 78.8 °F - 75.2 °F 89% 29.86 in 10.0 mi Calm Calm - N/A   Overcast
3:26 AM 78.8 °F - 75.2 °F 89% 29.86 in 10.0 mi Calm Calm - N/A   Overcast
3:56 AM 77.0 °F - 73.9 °F 90% 29.88 in 10.0 mi SSE 3.5 mph - N/A   Overcast
4:07 AM 77.0 °F - 73.4 °F 89% 29.87 in 10.0 mi SE 5.8 mph - N/A   Overcast
4:17 AM 78.8 °F - 73.4 °F 83% 29.88 in 10.0 mi SSE 5.8 mph - N/A   Overcast
4:56 AM 78.1 °F - 73.9 °F 87% 29.90 in 10.0 mi SE 3.5 mph - N/A   Overcast
5:24 AM 78.8 °F - 75.2 °F 89% 29.89 in 10.0 mi SSE 4.6 mph - N/A   Overcast
5:56 AM 79.0 °F - 73.0 °F 82% 29.92 in 10.0 mi SE 10.4 mph 19.6 mph N/A   Overcast
6:49 AM 78.8 °F - 73.4 °F 83% 29.93 in - ESE 19.6 mph 27.6 mph 0.02 in Rain Rain
6:56 AM 78.1 °F - 75.0 °F 90% 29.94 in 1.8 mi SE 17.3 mph 27.6 mph 0.03 in Rain Light Rain
7:09 AM 78.8 °F - 75.2 °F 89% 29.94 in 2.5 mi SE 17.3 mph 25.3 mph 0.02 in Rain Light Rain
7:16 AM 78.8 °F - 75.2 °F 89% 29.94 in 4.0 mi SE 13.8 mph 25.3 mph 0.02 in Rain Light Rain
7:25 AM 78.8 °F - 75.2 °F 89% 29.94 in 10.0 mi SE 16.1 mph 24.2 mph 0.02 in   Overcast
7:56 AM 77.0 °F - 73.9 °F 90% 29.96 in 5.0 mi SSE 16.1 mph 31.1 mph 0.04 in Rain Light Rain
8:11 AM 77.0 °F - 73.4 °F 89% 29.97 in 10.0 mi SSE 12.7 mph 23.0 mph 0.00 in   Overcast
8:20 AM - - - N/A% 29.97 in 10.0 mi SSE 11.5 mph - 0.00 in   Overcast
8:42 AM - - - N/A% 29.98 in 2.5 mi SE 13.8 mph 25.3 mph 0.00 in Rain Light Rain
8:51 AM - - - N/A% 30.00 in 0.5 mi SSE 20.7 mph 35.7 mph 0.12 in Rain Heavy Rain
9:00 AM - - - N/A% 30.00 in 1.0 mi SE 15.0 mph 28.8 mph 0.02 in Rain Light Rain
9:03 AM - - - N/A% 30.00 in 2.5 mi SE 12.7 mph 27.6 mph 0.02 in Rain Light Rain
9:10 AM - - - N/A% 30.01 in 4.0 mi SE 15.0 mph 21.9 mph 0.03 in Rain Light Rain
9:21 AM - - - N/A% 30.01 in 6.2 mi SE 15.0 mph 21.9 mph 0.03 in Rain Light Rain
9:56 AM - - - N/A% 30.03 in 10.0 mi SSE 10.4 mph 19.6 mph 0.03 in   Overcast
10:56 AM - - - N/A% 30.03 in 10.0 mi SSE 15.0 mph 24.2 mph N/A   Mostly Cloudy
11:56 AM - - - N/A% 30.04 in 10.0 mi SE 18.4 mph 25.3 mph N/A   Partly Cloudy
12:56 PM - - - N/A% 30.03 in 10.0 mi SSE 13.8 mph 24.2 mph N/A   Partly Cloudy
1:56 PM - - - N/A% 30.03 in 10.0 mi SE 26.5 mph 35.7 mph N/A   Partly Cloudy
2:56 PM - - - N/A% 30.03 in 10.0 mi SE 15.0 mph 24.2 mph 0.00 in   Mostly Cloudy
3:56 PM - - - N/A% 30.03 in 10.0 mi SE 12.7 mph 19.6 mph N/A   Scattered Clouds
4:31 PM - - - N/A% 30.02 in 10.0 mi SE 11.5 mph 18.4 mph N/A   Mostly Cloudy
4:44 PM 84.2 °F 90.9 °F 73.4 °F 70% 30.02 in 10.0 mi SSE 8.1 mph - N/A   Mostly Cloudy
4:56 PM 86.0 °F 93.8 °F 73.9 °F 67% 30.03 in 10.0 mi SSE 8.1 mph - N/A   Scattered Clouds
5:56 PM 84.9 °F 93.3 °F 75.0 °F 72% 30.05 in 10.0 mi SSE 6.9 mph - 0.00 in   Scattered Clouds
6:56 PM 82.0 °F 86.7 °F 72.0 °F 71% 30.07 in 10.0 mi NNE 6.9 mph - N/A   Partly Cloudy
8:56 PM - - - N/A% 30.10 in 10.0 mi North 4.6 mph - N/A   Clear
9:56 PM - - - N/A% 30.12 in 10.0 mi Calm Calm - N/A   Clear
10:56 PM - - - N/A% 30.12 in 10.0 mi ESE 3.5 mph - N/A   Clear
11:56 PM - - - N/A% 30.11 in 10.0 mi ESE 4.6 mph - N/A   Clear